Regional Weather Roundup
Issued by NWS

Home | Current Version | Previous Version | Graphics & Text | Print | Product List | Glossary On
Versions: 1 2 3 4 5 6 7 8 9 10 11 12 13 14 15 16 17 18 19 20 21 22 23 24 25 26 27 28 29 30 31 32 33 34 35 36 37 38 39 40 41 42 43 44 45 46 47 48 49 50
421
ASUS43 KMKX 260100
RWRWI

WISCONSIN REGIONAL WEATHER ROUNDUP
NATIONAL WEATHER SERVICE MILWAUKEE/SULLIVAN WI
800 PM CDT TUE APR 25 2017

NOTE: "FAIR" INDICATES FEW OR NO CLOUDS BELOW 12,000 FEET WITH NO
SIGNIFICANT WEATHER AND/OR OBSTRUCTIONS TO VISIBILITY.

WIZ001-002-006>008-014>016-023>028-260200-
NORTHWEST WISCONSIN

CITY           SKY/WX    TMP DP  RH WIND       PRES   REMARKS
SUPERIOR ARPT  LGT RAIN  40  39  97 NE10G16   29.70R WCI  34
ASHLAND        CLOUDY    39  36  89 NE22G30   29.71F WCI  29
HAYWARD        LGT RAIN  43  37  79 NE15      29.65R
SIREN          LGT RAIN  49  44  84 NE12      29.61S
CUMBERLAND     RAIN      54  50  87 N3        29.59R
RICE LAKE      LGT RAIN  56  54  92 E3        29.61R
CHETEK         RAIN      55  55 100 CALM      29.60R
LADYSMITH      LGT RAIN  57  53  88 S5        29.62R
EAU CLAIRE     NOT AVBL
MENOMONIE      DRIZZLE   56  56 100 NE6       29.58S
NEW RICHMOND   RAIN      54  52  95 NE3       29.58S
OSCEOLA        RAIN      55  55 100 CALM      29.61R
$$

WIZ003>005-009-010-017-018-260200-
NORTH CENTRAL WISCONSIN

CITY           SKY/WX    TMP DP  RH WIND       PRES   REMARKS
MANITOWISH WTR PTCLDY    56  40  56 CALM      29.60S
ARBOR VITAE    CLOUDY    57  49  75 N6        29.59S
WOODRUFF       CLOUDY    57  49  75 N6        29.59S
RHINELANDER    LGT RAIN  60  51  72 SW7       29.62R
EAGLE RIVER    LGT RAIN  64  42  44 W12       29.59S
LAND O LAKES   CLOUDY    56  44  62 N5        29.62S
PHILLIPS       LGT RAIN  54  51  89 NW5       29.60R
TOMAHAWK       LGT RAIN  57  49  75 SW5       29.61R
MEDFORD        DRIZZLE   54  52  94 CALM      29.60S
MERRILL        DRIZZLE   58  52  79 W7        29.61R
$$

WIZ029-030-035-036-043>047-260200-
CENTRAL WISCONSIN

CITY           SKY/WX    TMP DP  RH WIND       PRES   REMARKS
WAUSAU         LGT RAIN  57  52  83 NW8       29.58R
MOSINEE        CLOUDY    57  54  88 N10       29.59S
MARSHFIELD     LGT RAIN  56  52  86 N9        29.56F
STEVENS POINT  CLOUDY    61  47  59 N3        29.58R
WAUPACA        CLOUDY    67  50  54 E9        29.57F
WAUTOMA          N/A     67  52  58 E8        29.56
WISC RAPIDS    CLOUDY    61  52  72 NE6       29.56F
CAMP DOUGLAS   NOT AVBL
$$

WIZ011>013-019>022-031-037>040-048>050-260200-
NORTHEAST WISCONSIN

CITY           SKY/WX    TMP DP  RH WIND       PRES   REMARKS
ANTIGO         CLOUDY    60  50  69 S7        29.61R
SHAWANO        CLOUDY    66  49  55 S8        29.59S
OCONTO         CLOUDY    58  50  73 S3        29.61R
STURGEON BAY   CLOUDY    61  52  72 S9        29.63R
GREEN BAY      PTCLDY    61  52  72 SE7       29.60R
MANITOWOC      NOT AVBL
APPLETON       MOCLDY    63  46  55 SE7       29.58S
CLINTONVILLE   CLOUDY    63  48  59 SE6       29.59R
OSHKOSH        PTCLDY    64  49  57 SE9       29.58R
$$

WIZ032>034-041-042-053>061-260200-
SOUTHWEST WISCONSIN

CITY           SKY/WX    TMP DP  RH WIND       PRES   REMARKS
LA CROSSE      CLOUDY    61  53  75 N7        29.51S
SPARTA         CLOUDY    58  55  89 N6        29.53S
VIROQUA        CLOUDY    62  51  67 E7        29.50F
BOSCOBEL       CLOUDY    69  45  41 E3        29.48F
PRAIRIE DU CHI CLOUDY    69  42  37 E3        29.46F
PLATTEVILLE    CLOUDY    69  47  45 E6        29.49F
$$

WIZ056-057-062-063-064-067-068-260200-
SOUTH CENTRAL WISCONSIN

CITY           SKY/WX    TMP DP  RH WIND       PRES   REMARKS
REEDSBURG      CLOUDY    69  48  47 CALM      29.51F
BARABOO/DELLS  CLOUDY    67  48  50 E5        29.52S
LONE ROCK      NOT AVBL
MINERAL POINT  CLOUDY    70  45  40 E5        29.50S
MADISON        CLOUDY    69  50  50 E10       29.52R
MIDDLETON      CLOUDY    70  49  47 E3        29.52S
WATERTOWN      CLOUDY    67  50  54 E8        29.55R
MONROE         CLOUDY    70  43  37 SE8       29.51S
JANESVILLE     CLOUDY    70  48  46 SE6       29.52R
$$

WIZ051-052-058>065-066-070>072-260200-
SOUTHEAST WISCONSIN

CITY           SKY/WX    TMP DP  RH WIND       PRES   REMARKS
MILWAUKEE      CLOUDY    61  51  70 SE13      29.58S
WAUKESHA       CLOUDY    64  50  59 E12       29.58R
MILWAUKEE/TIMM MOCLDY    61  46  59 E7        29.58S
RACINE         CLOUDY    57  48  72 SE10      29.59S
KENOSHA        CLOUDY    59  49  69 E8        29.57R
FOND DU LAC    PTCLDY    66  49  54 SE13      29.58R
SHEBOYGAN      CLOUDY    59  52  77 SE3       29.60S
WEST BEND      MOCLDY    61  50  67 E7        29.59S
JUNEAU         CLOUDY    66  50  55 E12       29.57R
$$

LSZ147-162-260200-
LAKE SUPERIOR

STATION/POSITION TIME  TEMP    WIND        PRES    WAVE
                       AIR SEA DIR/SP/G            HT/PER
                 (UTC) (F)     (DEG/KT/KT) (MB)    (FT/S)
DEVILS ISLAND    0000   40      40/ 13/ 15 1006.6R
SAXON HARBOR     0040   39      10/ 13/ 15 1006.1R
$$

LMZ867-665-643>646-260200-
LAKE MICHIGAN

STATION/POSITION TIME  TEMP    WIND        PRES    WAVE
                       AIR SEA DIR/SP/G            HT/PER
                 (UTC) (F)     (DEG/KT/KT) (MB)    (FT/S)
CHAMBERS ISLAND  0040   45      30/  2/  7 1003.4R
N MID LAKE BUOY  2350   40 37   80/  6/  8 1005.7F   1/ 4
NORTHPORT PIER   0040   43     150/  3/  5 1004.1S
SISTER BAY       2336   59     130/ 12/ 14   N/A
KEWAUNEE LAKESHO 0030   53     180/  6/  6 1002.7S
SHEBOYGAN LAKESH 0000   50      60/  3/  3 1002.3F
PORT WASHINGTON  0040   53      30/  4/  5 1003.4S
MILWAUKEE LAKESH 0030   55     140/  4/  6   N/A
S MID LAKE BUOY  2350   49 42   70/ 10/ 12 1002.5S   1
KENOSHA   LAKESH 0000   52     110/ 17/ 20 1001.0
$$

TC  - TEMPERATURE IN CELSIUS
VSB - VISIBILITY IN STATUTE MILES
WCI - WIND CHILL INDEX
HX  - HEAT INDEX





USA.gov is the U.S. government's official web portal to all federal, state and local government web resources and services.